EAG5508 LJLJ-LOWI

Flight info

Callsign EAG5508
Flight time 0h 49m
Altitude 16000
Route GIMIX DCT NANIT DCT RTT
Aircraft A321/M-SDE3FGHIRWY/LB1

Departure

Time 2026-04-17 10:36
Airport Ljubljana Jože Pučnik Airport (LJLJ)

Arrival

Time 2026-04-17 11:25
Airport Innsbruck Airport (LOWI)
Time Latitude Longitude Altitude Speed Heading
2026-04-17 10:15 46.22976 14.45510 1258 ft 0 kts 36°
2026-04-17 10:27 46.22971 14.45505 1258 ft 4 kts 36°
2026-04-17 10:28 46.22951 14.45483 1269 ft 4 kts 34°
2026-04-17 10:28 46.22930 14.45471 1262 ft 4 kts 341°
2026-04-17 10:28 46.22911 14.45492 1268 ft 3 kts 308°
2026-04-17 10:28 46.22906 14.45500 1258 ft 0 kts 308°
2026-04-17 10:30 46.22907 14.45500 1258 ft 1 kts 308°
2026-04-17 10:30 46.22929 14.45458 1260 ft 6 kts 305°
2026-04-17 10:31 46.22924 14.45403 1263 ft 9 kts 235°
2026-04-17 10:31 46.22857 14.45330 1258 ft 12 kts 205°
2026-04-17 10:31 46.22786 14.45405 1257 ft 19 kts 126°
2026-04-17 10:31 46.22703 14.45569 1259 ft 21 kts 127°
2026-04-17 10:32 46.22611 14.45749 1258 ft 23 kts 126°
2026-04-17 10:32 46.22514 14.45937 1253 ft 24 kts 127°
2026-04-17 10:32 46.22416 14.46130 1240 ft 24 kts 127°
2026-04-17 10:32 46.22313 14.46332 1234 ft 25 kts 127°
2026-04-17 10:33 46.22201 14.46548 1224 ft 28 kts 126°
2026-04-17 10:33 46.22085 14.46779 1217 ft 30 kts 127°
2026-04-17 10:33 46.21964 14.47015 1214 ft 29 kts 126°
2026-04-17 10:33 46.21847 14.47243 1210 ft 22 kts 126°
2026-04-17 10:34 46.21761 14.47410 1208 ft 20 kts 126°
2026-04-17 10:34 46.21673 14.47578 1198 ft 14 kts 129°
2026-04-17 10:34 46.21593 14.47569 1197 ft 12 kts 215°
2026-04-17 10:34 46.21521 14.47495 1197 ft 13 kts 216°
2026-04-17 10:35 46.21513 14.47436 1199 ft 0 kts 305°
2026-04-17 10:35 46.21659 14.47149 1210 ft 71 kts 306°
2026-04-17 10:35 46.22078 14.46328 1233 ft 129 kts 306°
2026-04-17 10:36 46.22709 14.45096 1266 ft 173 kts 307°
2026-04-17 10:36 46.23476 14.43604 1552 ft 190 kts 307°
2026-04-17 10:36 46.24207 14.42044 2282 ft 187 kts 294°
2026-04-17 10:36 46.24485 14.40227 2852 ft 185 kts 275°
2026-04-17 10:37 46.24558 14.38305 3081 ft 200 kts 272°
2026-04-17 10:37 46.24602 14.36225 3311 ft 211 kts 271°
2026-04-17 10:37 46.24657 14.34115 3703 ft 211 kts 273°
2026-04-17 10:37 46.24727 14.32016 4120 ft 212 kts 275°
2026-04-17 10:38 46.24812 14.29924 4653 ft 207 kts 275°
2026-04-17 10:38 46.24907 14.27854 5108 ft 206 kts 276°
2026-04-17 10:38 46.25009 14.25773 5555 ft 208 kts 276°
2026-04-17 10:38 46.25116 14.23681 6052 ft 210 kts 277°
2026-04-17 10:39 46.25224 14.21577 6550 ft 210 kts 277°
2026-04-17 10:39 46.25335 14.19470 7021 ft 210 kts 277°
2026-04-17 10:39 46.25448 14.17367 7483 ft 210 kts 276°
2026-04-17 10:39 46.25558 14.15290 7963 ft 210 kts 277°
2026-04-17 10:40 46.25669 14.13186 8427 ft 210 kts 277°
2026-04-17 10:40 46.25797 14.11088 8905 ft 208 kts 284°
2026-04-17 10:40 46.26375 14.09218 9359 ft 203 kts 311°
2026-04-17 10:40 46.27363 14.07770 9812 ft 203 kts 318°
2026-04-17 10:41 46.28379 14.06334 10237 ft 205 kts 317°
2026-04-17 10:41 46.29387 14.04885 10658 ft 205 kts 316°
2026-04-17 10:41 46.30407 14.03405 10952 ft 214 kts 316°
2026-04-17 10:41 46.31489 14.01834 11080 ft 227 kts 316°
2026-04-17 10:42 46.32636 14.00167 11204 ft 242 kts 316°
2026-04-17 10:42 46.33857 13.98393 11298 ft 263 kts 316°
2026-04-17 10:42 46.35203 13.96433 11430 ft 286 kts 316°
2026-04-17 10:42 46.36657 13.94313 11576 ft 307 kts 316°
2026-04-17 10:43 46.38212 13.92046 11693 ft 327 kts 316°
2026-04-17 10:43 46.39864 13.89639 11820 ft 346 kts 315°
2026-04-17 10:43 46.41598 13.87105 11948 ft 363 kts 315°
2026-04-17 10:43 46.43404 13.84459 12271 ft 373 kts 315°
2026-04-17 10:44 46.45239 13.81771 12784 ft 377 kts 315°
2026-04-17 10:44 46.47067 13.79095 13371 ft 380 kts 315°
2026-04-17 10:44 46.48932 13.76364 13936 ft 383 kts 315°
2026-04-17 10:44 46.50811 13.73612 14473 ft 384 kts 316°
2026-04-17 10:45 46.52697 13.70839 14957 ft 387 kts 315°
2026-04-17 10:45 46.54579 13.68011 15448 ft 391 kts 314°
2026-04-17 10:45 46.56450 13.65139 15927 ft 393 kts 314°
2026-04-17 10:45 46.58328 13.62225 16165 ft 394 kts 314°
2026-04-17 10:46 46.60221 13.59284 16217 ft 404 kts 314°
2026-04-17 10:46 46.62156 13.56277 16218 ft 409 kts 314°
2026-04-17 10:46 46.64102 13.53258 16212 ft 409 kts 314°
2026-04-17 10:46 46.66027 13.50281 16212 ft 409 kts 314°
2026-04-17 10:47 46.67982 13.47265 16215 ft 410 kts 314°
2026-04-17 10:47 46.69945 13.44242 16218 ft 410 kts 314°
2026-04-17 10:47 46.71901 13.41220 16211 ft 410 kts 314°
2026-04-17 10:47 46.73859 13.38188 16212 ft 410 kts 314°
2026-04-17 10:48 46.75156 13.36176 16211 ft 411 kts 314°
2026-04-17 10:48 46.77767 13.32110 16214 ft 411 kts 314°
2026-04-17 10:48 46.79719 13.29066 16215 ft 411 kts 314°
2026-04-17 10:48 46.81648 13.26059 16215 ft 411 kts 314°
2026-04-17 10:49 46.83591 13.23030 16223 ft 411 kts 314°
2026-04-17 10:49 46.85555 13.19963 16226 ft 411 kts 314°
2026-04-17 10:49 46.87509 13.16908 16231 ft 411 kts 314°
2026-04-17 10:49 46.89458 13.13853 16217 ft 411 kts 314°
2026-04-17 10:50 46.91410 13.10790 16221 ft 411 kts 314°
2026-04-17 10:50 46.93359 13.07730 16218 ft 411 kts 314°
2026-04-17 10:50 46.95308 13.04672 16220 ft 410 kts 314°
2026-04-17 10:50 46.96599 13.02649 16216 ft 410 kts 314°
2026-04-17 10:51 46.98549 12.99594 16221 ft 411 kts 314°
2026-04-17 10:51 47.01130 12.95534 16221 ft 411 kts 314°
2026-04-17 10:51 47.03077 12.92462 16221 ft 411 kts 314°
2026-04-17 10:51 47.05025 12.89384 16224 ft 412 kts 314°
2026-04-17 10:52 47.06342 12.87299 16224 ft 412 kts 314°
2026-04-17 10:52 47.08919 12.83213 16229 ft 412 kts 313°
2026-04-17 10:52 47.10207 12.81169 16233 ft 412 kts 313°
2026-04-17 10:52 47.12156 12.78081 16238 ft 412 kts 313°
2026-04-17 10:53 47.14099 12.75000 16236 ft 411 kts 313°
2026-04-17 10:53 47.16041 12.71914 16239 ft 411 kts 313°
2026-04-17 10:53 47.17980 12.68832 16234 ft 411 kts 313°
2026-04-17 10:53 47.19918 12.65745 16239 ft 411 kts 313°
2026-04-17 10:54 47.21854 12.62658 16239 ft 411 kts 313°
2026-04-17 10:54 47.23789 12.59562 16230 ft 411 kts 313°
2026-04-17 10:54 47.25699 12.56502 16236 ft 411 kts 313°
2026-04-17 10:54 47.27636 12.53401 16234 ft 411 kts 313°
2026-04-17 10:55 47.29573 12.50305 16226 ft 411 kts 313°
2026-04-17 10:55 47.31507 12.47204 16221 ft 411 kts 313°
2026-04-17 10:55 47.34070 12.43079 16236 ft 412 kts 313°
2026-04-17 10:55 47.35377 12.40972 16238 ft 413 kts 313°
2026-04-17 10:56 47.37226 12.37737 16238 ft 413 kts 306°
2026-04-17 10:56 47.38657 12.34133 16238 ft 414 kts 296°
2026-04-17 10:56 47.39640 12.30087 16243 ft 415 kts 285°
2026-04-17 10:56 47.40132 12.25937 16243 ft 417 kts 279°
2026-04-17 10:57 47.40524 12.21692 16242 ft 417 kts 279°
2026-04-17 10:57 47.40918 12.17456 16242 ft 417 kts 279°
2026-04-17 10:57 47.41314 12.13218 16239 ft 417 kts 279°
2026-04-17 10:57 47.41709 12.08974 16243 ft 417 kts 279°
2026-04-17 10:58 47.42101 12.04739 16238 ft 416 kts 279°
2026-04-17 10:58 47.42494 12.00497 16239 ft 417 kts 279°
2026-04-17 10:58 47.42865 11.96247 16239 ft 418 kts 276°
2026-04-17 10:58 47.42878 11.92010 16160 ft 420 kts 267°
2026-04-17 10:59 47.42489 11.87742 15906 ft 418 kts 263°
2026-04-17 10:59 47.42049 11.83507 15658 ft 417 kts 263°
2026-04-17 10:59 47.41612 11.79281 15419 ft 415 kts 263°
2026-04-17 10:59 47.41180 11.75073 15166 ft 414 kts 263°
2026-04-17 11:00 47.40750 11.70872 14910 ft 413 kts 263°
2026-04-17 11:00 47.40323 11.66687 14672 ft 412 kts 263°
2026-04-17 11:00 47.39897 11.62502 14430 ft 411 kts 263°
2026-04-17 11:00 47.39474 11.58342 14175 ft 410 kts 263°
2026-04-17 11:01 47.39055 11.54235 13927 ft 409 kts 263°
2026-04-17 11:01 47.38627 11.50097 13669 ft 408 kts 263°
2026-04-17 11:01 47.38196 11.45969 13401 ft 406 kts 263°
2026-04-17 11:01 47.37767 11.41866 13233 ft 403 kts 263°
2026-04-17 11:02 47.37338 11.37780 13316 ft 404 kts 263°
2026-04-17 11:02 47.36908 11.33687 13304 ft 404 kts 263°
2026-04-17 11:02 47.36478 11.29594 13305 ft 404 kts 263°
2026-04-17 11:02 47.36043 11.25497 13306 ft 404 kts 263°
2026-04-17 11:03 47.35606 11.21405 13338 ft 404 kts 262°
2026-04-17 11:03 47.35174 11.17366 13332 ft 404 kts 263°
2026-04-17 11:03 47.34737 11.13272 13337 ft 404 kts 263°
2026-04-17 11:03 47.34300 11.09188 13340 ft 403 kts 263°
2026-04-17 11:04 47.33860 11.05100 13335 ft 403 kts 262°
2026-04-17 11:04 47.33422 11.01052 13896 ft 392 kts 262°
2026-04-17 11:04 47.32998 10.97167 15020 ft 379 kts 263°
2026-04-17 11:04 47.32577 10.93338 15574 ft 380 kts 263°
2026-04-17 11:05 47.32151 10.89448 15848 ft 390 kts 263°
2026-04-17 11:05 47.31724 10.85542 15972 ft 385 kts 263°
2026-04-17 11:05 47.31304 10.81749 16004 ft 366 kts 263°
2026-04-17 11:05 47.30905 10.78134 16006 ft 349 kts 263°
2026-04-17 11:06 47.30523 10.74678 16010 ft 334 kts 263°
2026-04-17 11:06 47.30157 10.71381 16004 ft 318 kts 263°
2026-04-17 11:06 47.29805 10.68241 16007 ft 303 kts 263°
2026-04-17 11:06 47.29469 10.65263 16009 ft 289 kts 263°
2026-04-17 11:07 47.29162 10.62404 16007 ft 284 kts 268°
2026-04-17 11:07 47.29305 10.59547 16009 ft 278 kts 287°
2026-04-17 11:07 47.30081 10.56983 16008 ft 276 kts 306°
2026-04-17 11:07 47.31403 10.54951 16008 ft 275 kts 326°
2026-04-17 11:08 47.33065 10.53566 16013 ft 275 kts 332°
2026-04-17 11:08 47.34761 10.52252 16006 ft 275 kts 332°
2026-04-17 11:08 47.36458 10.50935 16013 ft 276 kts 332°
2026-04-17 11:08 47.38216 10.49834 16002 ft 275 kts 348°
2026-04-17 11:09 47.40098 10.49767 16011 ft 278 kts 11°
2026-04-17 11:09 47.41883 10.50863 16009 ft 282 kts 33°
2026-04-17 11:09 47.43233 10.52970 16013 ft 287 kts 58°
2026-04-17 11:10 47.43660 10.58755 16010 ft 297 kts 109°
2026-04-17 11:10 47.42586 10.61357 16013 ft 301 kts 136°
2026-04-17 11:10 47.40848 10.63035 16011 ft 300 kts 163°
2026-04-17 11:10 47.38807 10.63430 16013 ft 298 kts 189°
2026-04-17 11:11 47.36890 10.62527 16011 ft 292 kts 215°
2026-04-17 11:11 47.35444 10.60513 16012 ft 286 kts 242°
2026-04-17 11:11 47.34770 10.57819 16013 ft 280 kts 265°
2026-04-17 11:11 47.34661 10.54958 16012 ft 280 kts 272°
2026-04-17 11:12 47.34669 10.52090 16002 ft 280 kts 273°
2026-04-17 11:12 47.34705 10.49216 16011 ft 280 kts 273°
2026-04-17 11:12 47.34737 10.46340 16012 ft 280 kts 273°
2026-04-17 11:12 47.34768 10.43471 16011 ft 280 kts 272°
2026-04-17 11:13 47.34417 10.40657 16008 ft 284 kts 246°
2026-04-17 11:13 47.33237 10.38327 16006 ft 288 kts 220°
2026-04-17 11:13 47.31484 10.36950 15747 ft 297 kts 195°
2026-04-17 11:13 47.29459 10.36829 15573 ft 289 kts 169°
2026-04-17 11:14 47.27625 10.37867 15435 ft 278 kts 147°
2026-04-17 11:14 47.26220 10.39748 14981 ft 278 kts 124°
2026-04-17 11:14 47.25386 10.42356 14228 ft 288 kts 100°
2026-04-17 11:14 47.25314 10.45289 13620 ft 288 kts 78°
2026-04-17 11:15 47.25948 10.48034 13236 ft 280 kts 64°
2026-04-17 11:15 47.26705 10.50597 13024 ft 270 kts 64°
2026-04-17 11:15 47.27417 10.53060 13019 ft 254 kts 64°
2026-04-17 11:15 47.28099 10.55429 13034 ft 250 kts 65°
2026-04-17 11:16 47.28587 10.57879 13039 ft 250 kts 78°
2026-04-17 11:16 47.28745 10.60438 13040 ft 252 kts 83°
2026-04-17 11:16 47.28872 10.63005 13038 ft 252 kts 83°
2026-04-17 11:16 47.29008 10.65624 13033 ft 263 kts 83°
2026-04-17 11:17 47.29148 10.68309 12541 ft 265 kts 83°
2026-04-17 11:17 47.29288 10.71037 12023 ft 268 kts 84°
2026-04-17 11:17 47.29428 10.73777 11577 ft 267 kts 84°
2026-04-17 11:17 47.29563 10.76421 11163 ft 258 kts 84°
2026-04-17 11:18 47.29696 10.79036 10770 ft 255 kts 85°
2026-04-17 11:18 47.29826 10.81642 10360 ft 256 kts 85°
2026-04-17 11:18 47.29956 10.84273 9954 ft 257 kts 85°
2026-04-17 11:18 47.30082 10.86862 9528 ft 250 kts 85°
2026-04-17 11:19 47.30206 10.89394 9117 ft 245 kts 85°
2026-04-17 11:19 47.30325 10.91852 8741 ft 236 kts 85°
2026-04-17 11:19 47.30439 10.94230 8370 ft 229 kts 85°
2026-04-17 11:19 47.30547 10.96512 8016 ft 216 kts 85°
2026-04-17 11:20 47.30650 10.98674 7683 ft 208 kts 85°
2026-04-17 11:20 47.30748 11.00733 7367 ft 200 kts 85°
2026-04-17 11:20 47.30844 11.02736 7044 ft 193 kts 85°
2026-04-17 11:20 47.30939 11.04720 6750 ft 194 kts 85°
2026-04-17 11:21 47.30946 11.06694 6430 ft 193 kts 97°
2026-04-17 11:21 47.30595 11.08591 6118 ft 192 kts 112°
2026-04-17 11:21 47.30041 11.10361 5810 ft 189 kts 115°
2026-04-17 11:21 47.29482 11.12049 5523 ft 178 kts 115°
2026-04-17 11:22 47.28934 11.13691 5232 ft 180 kts 114°
2026-04-17 11:22 47.28384 11.15337 4939 ft 182 kts 115°
2026-04-17 11:22 47.27832 11.16989 4672 ft 177 kts 114°
2026-04-17 11:22 47.27294 11.18611 4382 ft 174 kts 114°
2026-04-17 11:23 47.26771 11.20199 4079 ft 171 kts 115°
2026-04-17 11:23 47.26263 11.21757 3756 ft 165 kts 115°
2026-04-17 11:23 47.25798 11.23236 3511 ft 156 kts 112°
2026-04-17 11:23 47.25448 11.24721 3258 ft 152 kts 103°
2026-04-17 11:24 47.25311 11.26270 3005 ft 152 kts 91°
2026-04-17 11:24 47.25337 11.27823 2786 ft 152 kts 84°
2026-04-17 11:24 47.25469 11.29334 2599 ft 150 kts 82°
2026-04-17 11:24 47.25641 11.30842 2377 ft 149 kts 81°
2026-04-17 11:25 47.25803 11.32327 2111 ft 144 kts 82°
2026-04-17 11:25 47.25952 11.33757 1900 ft 137 kts 82°
2026-04-17 11:25 47.26073 11.34868 1896 ft 69 kts 81°
2026-04-17 11:25 47.26108 11.35189 1900 ft 11 kts 85°
2026-04-17 11:26 47.26065 11.35257 1898 ft 9 kts 162°
2026-04-17 11:26 47.26006 11.35271 1895 ft 8 kts 172°
2026-04-17 11:26 47.25957 11.35283 1898 ft 7 kts 170°
2026-04-17 11:26 47.25915 11.35285 1901 ft 5 kts 187°
2026-04-17 11:27 47.25883 11.35284 1902 ft 4 kts 175°
2026-04-17 11:27 47.25860 11.35289 1896 ft 3 kts 172°
2026-04-17 11:27 47.25849 11.35291 1904 ft 0 kts 171°